Location: Bruderhein
(53.8035°N, 112.9265°W)
Time: 21:35:11
(UTC+00:00)

ITAMSAT 1 - Visible Passes

Search period start: 31 March 2023 00:00
Search period end: 10 April 2023 00:00
Orbit: 784 x 795 km, 98.8° (Epoch: 31 March)

Date Brightness Start Highest point End Pass type
(mag) Time Alt. Az. Time Alt. Az. Time Alt. Az.
31 Mar 9.6 04:01:52 10° SSW 04:06:20 28° W 04:10:50 10° NW visible
01 Apr 8.7 03:31:26 10° S 03:36:26 46° W 03:41:31 10° NNW visible
02 Apr 7.9 03:01:27 10° SSE 03:06:40 77° WSW 03:11:57 10° NNW visible
02 Apr 10.3 04:44:12 10° WSW 04:47:01 14° W 04:49:50 10° NW visible
03 Apr 9.8 04:12:45 10° SW 04:16:56 24° W 04:21:09 10° NW visible
04 Apr 9.0 03:42:07 10° SSW 03:46:59 39° W 03:51:55 10° NNW visible
05 Apr 8.1 03:11:59 10° S 03:17:10 65° WSW 03:22:25 10° NNW visible
05 Apr 10.5 04:55:43 10° WSW 04:57:40 12° W 04:59:38 10° WNW visible
06 Apr 7.7 02:42:16 10° SSE 02:47:30 78° ENE 02:52:45 10° NNW visible
06 Apr 10.1 04:23:42 10° SW 04:27:32 20° W 04:31:24 10° NW visible
07 Apr 9.3 03:52:51 10° SSW 03:57:32 33° W 04:02:17 10° NNW visible
08 Apr 8.4 03:22:34 10° S 03:27:41 55° W 03:32:51 10° NNW visible
09 Apr 7.8 02:52:42 10° SSE 02:57:57 89° WSW 03:03:14 10° NNW visible
09 Apr 10.2 04:34:46 10° SW 04:38:09 17° W 04:41:33 10° NW visible
